"Pseudo-MPEC" for P10Qwx3

Created 2019 Aug 14 16:07:12 UT using Find_Orb

Click here for an explanation of pseudo-MPECs

 
 Astrometry: 
     P10Qwx3  C2019 08 09SYy__InC/-wL8[AstrometrygE#Z_AeeF4]5LnIN'I4fL\d[^q31F51
     P10Qwx3  C2019 08 09cnR/L3Hredacted;GR3mclickfJ(\vw,KX/9E[hereu/forq4Z*yF51
     P10Qwx3  C2019 08 09xRQa$/KJvk!'vRgG0v:/2jr)$-gW+?bFx[/I+_BexplanationP_F51

Station data:
(F51) Pan-STARRS 1, Haleakala  (N20.707235 W156.255910)  US/Hawaii.
   Observers N. Primak, A. Schultz, S. Watters, J. Thiel, T. Goggia. Measurer
   PS1 Science Consortium. 1.8-m Ritchey-Chrétien + CCD.

Orbital elements:  P10Qwx3
   Perihelion 2019 Sep 15.089506 +/- 27 TT =  2:08:53 (JD 2458741.589506)
Epoch 2019 Aug 10.0 TT = JDT 2458705.5   Earth MOID: 0.0067   AutoNEOCP
M 329.50931721 +/- 28               (J2000 ecliptic)
n   0.84486284 +/- 0.496            Peri.  241.71659 +/- 100
a   1.10818408 +/- 0.433            Node   111.78743 +/- 60
e   0.0883749 +/- 0.243             Incl.    0.42766 +/- 11
P   1.17/426.10d           H 29.0   G  0.15   U 12.3  SR
q 1.01024837 +/- 0.339    Q 1.20611979 +/- 30.9
From 3 observations 2019 Aug. 9 (30.7 min); mean residual 0".12
Residuals in arcseconds: 
190809 F51  .10+  .06-    190809 F51  .21-  .12+    190809 F51  .10+  .06-    

Ephemerides (geocentric):
Date (UTC) HH   RA              Dec         delta   r     elong  mag " sig PA
---- -- -- --  -------------   -----------  ------ ------ -----  --- ---- ---
2019 08 14 16  01 03 27.280   -09 19 44.75  .01505 1.0225 128.8 21.8  66d 170
2019 08 14 17  01 04 04.955   -09 16 50.80  .01505 1.0225 128.7 21.8  66d 170
2019 08 14 18  01 04 42.608   -09 13 56.63  .01505 1.0224 128.6 21.8  66d 170
2019 08 14 19  01 05 20.239   -09 11 02.27  .01505 1.0224 128.4 21.8  66d 170
2019 08 14 20  01 05 57.848   -09 08 07.69  .01505 1.0224 128.3 21.8  66d 170
2019 08 14 21  01 06 35.434   -09 05 12.92  .01505 1.0223 128.2 21.9  66d 170
2019 08 14 22  01 07 12.996   -09 02 17.95  .01505 1.0223 128.1 21.9  66d 170
2019 08 14 23  01 07 50.535   -08 59 22.79  .01506 1.0223 127.9 21.9  66d 170
2019 08 15 00  01 08 28.049   -08 56 27.45  .01506 1.0222 127.8 21.9  66d 170
2019 08 15 01  01 09 05.538   -08 53 31.92  .01506 1.0222 127.7 21.9  66d 170
2019 08 15 02  01 09 43.002   -08 50 36.22  .01506 1.0222 127.6 21.9  66d 170
2019 08 15 03  01 10 20.440   -08 47 40.34  .01506 1.0221 127.4 21.9  66d 170
2019 08 15 04  01 10 57.852   -08 44 44.29  .01506 1.0221 127.3 21.9  66d 170
2019 08 15 05  01 11 35.236   -08 41 48.08  .01507 1.0221 127.2 21.9  66d 170
2019 08 15 06  01 12 12.593   -08 38 51.71  .01507 1.0220 127.1 21.9  66d 170
2019 08 15 07  01 12 49.923   -08 35 55.18  .01507 1.0220 127.0 21.9  66d 170
2019 08 15 08  01 13 27.224   -08 32 58.50  .01507 1.0220 126.8 21.9  66d 170
2019 08 15 09  01 14 04.496   -08 30 01.67  .01507 1.0220 126.7 21.9  66d 170
2019 08 15 10  01 14 41.738   -08 27 04.70  .01508 1.0219 126.6 21.9  66d 170
2019 08 15 11  01 15 18.951   -08 24 07.59  .01508 1.0219 126.5 21.9  66d 170
2019 08 15 12  01 15 56.134   -08 21 10.35  .01508 1.0219 126.3 21.9  66d 170
2019 08 15 13  01 16 33.286   -08 18 12.97  .01509 1.0218 126.2 21.9  66d 170
2019 08 15 14  01 17 10.407   -08 15 15.47  .01509 1.0218 126.1 21.9  66d 170
2019 08 15 15  01 17 47.496   -08 12 17.85  .01509 1.0218 126.0 21.9  66d 170
2019 08 15 16  01 18 24.552   -08 09 20.12  .01509 1.0217 125.9 21.9  66d 170
2019 08 15 17  01 19 01.576   -08 06 22.27  .01510 1.0217 125.7 21.9  66d 170
2019 08 15 18  01 19 38.568   -08 03 24.31  .01510 1.0217 125.6 21.9  66d 170
2019 08 15 19  01 20 15.525   -08 00 26.24  .01510 1.0216 125.5 21.9  66d 170
2019 08 15 20  01 20 52.449   -07 57 28.08  .01511 1.0216 125.4 21.9  66d 170
2019 08 15 21  01 21 29.338   -07 54 29.82  .01511 1.0216 125.2 21.9  66d 170
2019 08 15 22  01 22 06.192   -07 51 31.48  .01512 1.0215 125.1 21.9  66d 170
2019 08 15 23  01 22 43.011   -07 48 33.04  .01512 1.0215 125.0 21.9  66d 170
2019 08 16 00  01 23 19.794   -07 45 34.52  .01512 1.0215 124.9 22.0  66d 170
2019 08 16 01  01 23 56.541   -07 42 35.93  .01513 1.0215 124.8 22.0  66d 170
2019 08 16 02  01 24 33.251   -07 39 37.26  .01513 1.0214 124.6 22.0  66d 170
2019 08 16 03  01 25 09.924   -07 36 38.52  .01514 1.0214 124.5 22.0  66d 170
2019 08 16 04  01 25 46.560   -07 33 39.71  .01514 1.0214 124.4 22.0  66d 170
2019 08 16 05  01 26 23.157   -07 30 40.85  .01515 1.0213 124.3 22.0  66d 170
2019 08 16 06  01 26 59.717   -07 27 41.93  .01515 1.0213 124.2 22.0  66d 170
2019 08 16 07  01 27 36.237   -07 24 42.95  .01515 1.0213 124.0 22.0  66d 170
2019 08 16 08  01 28 12.719   -07 21 43.93  .01516 1.0212 123.9 22.0  66d 170
2019 08 16 09  01 28 49.160   -07 18 44.86  .01516 1.0212 123.8 22.0  66d 170
2019 08 16 10  01 29 25.562   -07 15 45.75  .01517 1.0212 123.7 22.0  66d 170
2019 08 16 11  01 30 01.923   -07 12 46.61  .01517 1.0211 123.6 22.0  66d 170
2019 08 16 12  01 30 38.244   -07 09 47.44  .01518 1.0211 123.4 22.0  66d 170
2019 08 16 13  01 31 14.523   -07 06 48.24  .01519 1.0211 123.3 22.0  66d 170
2019 08 16 14  01 31 50.760   -07 03 49.01  .01519 1.0211 123.2 22.0  66d 170
2019 08 16 15  01 32 26.956   -07 00 49.77  .01520 1.0210 123.1 22.0  66d 170